Sault Ste Marie, MI

6:24 PM EDT on October 19, 2017 (GMT -0400)
Sault Ste Marie Municipal / Sanderson Field

Weather History for KANJ - January, 2012

Change the Weather History Date:

Sunday, January 15, 2012

  Actual Average Record
Temperature  
Mean Temperature 14 °F 15 °F  
Max Temperature 25 °F 23 °F 41 °F (1953)
Min Temperature 2 °F 7 °F -29 °F (1994)
Degree Days  
Heating Degree Days 51 50  
Month to date heating degree days 645 738  
Since 1 July heating degree days 3337 3997  
Moisture  
Dew Point 8 °F    
Average Humidity 76    
Maximum Humidity 86    
Minimum Humidity 66    
Precipitation  
Precipitation T in 0.07 in 0.62 in (1953)
Month to date precipitation 1.44 1.14  
Year to date precipitation 1.44 1.14  
Snow  
Snow T in 1.10 in 5.80 in (1975)
Month to date snowfall 18.4 15.8  
Since 1 July snowfall 35.4 66.0  
Snow Depth 9.00 in    
Sea Level Pressure  
Sea Level Pressure 30.26 in    
Wind  
Wind Speed 6 mph (ESE)    
Max Wind Speed 14 mph    
Max Gust Speed 19 mph    
Visibility 10 miles    
Events      
T = Trace of Precipitation, MM = Missing Value Source: NWS Daily Summary

Daily Weather History Graph

Daily Weather History Graph

Search for Another Location

Airport or City:

Trip Planner

Search our weather history database for the weather conditions in past years. The results will help you decide how hot, cold, wet, or windy it might be!

Date:

Astronomy

Jan. 15, 2012 Rise Set
Actual Time 8:17 AM EST 5:16 PM EST
Civil Twilight 7:43 AM EST 5:50 PM EST
Nautical Twilight 7:06 AM EST 6:27 PM EST
Astronomical Twilight 6:29 AM EST 7:04 PM EST
Moon 12:02 AM EST (1/15) 11:05 AM EST (1/15)
Length of Visible Light 10h 07m
Length of Day
8h 59m
Waning Gibbous, 58% of the Moon is Illuminated
Jan 15
Waning Gibbous
Jan 16
Last Quarter
Jan 23
New
Jan 30
First Quarter
Feb 7
Full

Hourly Weather History & Observations

Time (EST) Temp. Windchill Dew Point Humidity Pressure Visibility Wind Dir Wind Speed Gust Speed Precip Events Conditions
12:55 AM 6.1 °F -2.8 °F -0.9 °F 73% 30.29 in 10.0 mi ENE 4.6 mph - N/A   Overcast
1:55 AM 6.1 °F -4.3 °F -2.0 °F 69% 30.30 in 10.0 mi ENE 5.8 mph - N/A   Overcast
2:55 AM 5.0 °F - -2.9 °F 70% - 7.0 mi Calm Calm - N/A   Scattered Clouds
3:14 AM 5.0 °F - -2.2 °F 72% - 10.0 mi Calm Calm - N/A   Mostly Cloudy
3:55 AM 3.9 °F - -2.0 °F 76% - 10.0 mi Calm Calm - N/A   Overcast
4:21 AM 5.0 °F -2.1 °F -2.2 °F 72% - 8.0 mi East 3.5 mph - N/A   Scattered Clouds
4:55 AM 6.1 °F -2.8 °F -2.9 °F 67% - 9.0 mi East 4.6 mph - N/A   Clear
5:55 AM 5.0 °F -5.6 °F -0.0 °F 80% - 10.0 mi East 5.8 mph - N/A   Clear
6:55 AM 3.9 °F - -0.9 °F 80% - 8.0 mi Calm Calm - N/A   Clear
7:55 AM 7.0 °F 0.1 °F -0.0 °F 73% - 10.0 mi East 3.5 mph - N/A   Overcast
8:55 AM 8.1 °F -3.2 °F -0.0 °F 70% - 10.0 mi ENE 6.9 mph - N/A   Overcast
9:55 AM 10.0 °F 3.6 °F 1.9 °F 70% 30.36 in 10.0 mi ENE 3.5 mph - N/A   Overcast
10:55 AM 12.9 °F 6.9 °F 5.0 °F 71% 30.36 in 10.0 mi East 3.5 mph - N/A   Overcast
11:55 AM 17.1 °F 7.6 °F 9.0 °F 71% 30.35 in 10.0 mi East 6.9 mph - N/A   Overcast
12:55 PM 19.0 °F 11.1 °F 10.9 °F 71% 30.33 in 10.0 mi East 5.8 mph - N/A   Overcast
1:55 PM 21.9 °F 11.7 °F 14.0 °F 72% 30.30 in 10.0 mi SE 9.2 mph - N/A   Overcast
2:55 PM 23.0 °F 13.1 °F 15.1 °F 72% 30.29 in 10.0 mi SE 9.2 mph - N/A   Overcast
3:55 PM 24.1 °F 15.2 °F 15.1 °F 69% 30.28 in 10.0 mi SSE 8.1 mph - N/A   Overcast
4:55 PM 24.1 °F 13.7 °F 15.1 °F 69% 30.27 in 10.0 mi SE 10.4 mph - N/A   Overcast
5:43 PM 24.8 °F 16.9 °F 15.8 °F 69% 30.23 in 10.0 mi SE 6.9 mph - N/A   Overcast
5:55 PM 24.1 °F 15.2 °F 17.1 °F 75% 30.27 in 10.0 mi SE 8.1 mph - N/A   Overcast
6:35 PM 24.8 °F 14.0 °F 17.6 °F 74% 30.20 in 10.0 mi SE 11.5 mph - N/A   Overcast
6:55 PM 24.1 °F 13.7 °F 16.0 °F 71% 30.25 in 10.0 mi SSE 10.4 mph - N/A   Overcast
7:12 PM 24.8 °F 15.3 °F 17.6 °F 74% 30.20 in 10.0 mi SSE 9.2 mph - N/A   Overcast
7:20 PM 24.8 °F 14.0 °F 17.6 °F 74% 30.19 in 10.0 mi SSE 11.5 mph - N/A   Overcast
7:55 PM 24.1 °F 14.4 °F 17.1 °F 75% 30.23 in 10.0 mi SE 9.2 mph - N/A   Overcast
8:55 PM 24.1 °F 13.7 °F 18.0 °F 77% 30.21 in 10.0 mi SE 10.4 mph - N/A   Overcast
9:55 PM 24.1 °F 13.7 °F 19.0 °F 81% 30.19 in 10.0 mi SSE 10.4 mph - N/A   Overcast
10:55 PM 24.1 °F 14.4 °F 18.0 °F 77% 30.19 in 10.0 mi SSE 9.2 mph 17.3 mph N/A   Overcast